Location: Eexterzandvoort
(53.0303°N, 6.7884°E)
Time: 16:17:28
(UTC+00:00)

Spot 4 - Pass Details

Date: 19 May 2025
Orbit: 699 x 715 km, 98.3° (Epoch: 17 June)

Event Time Altitude Azimuth Distance (km) Brightness Sun altitude
Exits shadow 22:56:45 29° 187° (S) 1,287 4.6 -16.6°
Maximum altitude 22:59:07 62° 258° (WSW) 797 4.0 -16.7°
Drops below altitude 10° 23:03:52 10° 339° (NNW) 2,188 7.6 -16.8°
Sets 23:06:10 0° 343° (NNW) 3,114 8.8 -16.8°
